Location: *
(43.4667°N, 11.6833°E)
Time: 08:07:36
(UTC+00:00)

SL-4 R/B - Pass Details

Date: 19 July 2019
Orbit: 428 x 667 km, 51.6° (Epoch: 21 August)

Event Time Altitude Azimuth Distance (km) Brightness Sun altitude
Rises 20:34:57 0° 230° (SW) 2,981 5.8 -15.5°
Reaches altitude 10° 20:37:18 10° 228° (SW) 2,081 4.9 -15.7°
Maximum altitude 20:42:07 74° 144° (SE) 694 2.3 -16.3°
Drops below altitude 10° 20:46:54 10° 60° (ENE) 2,067 4.9 -16.8°
Sets 20:49:13 0° 59° (ENE) 2,959 5.7 -17.1°
